EGTEEGJJ

Guest
Details From EGTE - Exeter
To EGJJ - Jersey
Flight Number -
Tags generated
Created
Modified
Stats Distance 103 nm / 191 km
Max Altitude 7,100 ft / 2,164 m
Waypoints 3
Social Downloads 0
Likes 0
Share VATSIM

Download

Looking for another format? Having issues loading an existing format? Contact us
Advertisement - Login to hide

Notes

Basic altitude profile: - Ascent Rate: 2500ft/min - Ascent Speed: 250kts - Cruise Altitude: 35000ft - Cruise Speed: 420kts - Descent Rate: 1500ft/min - Descent Speed: 250kts Options: - Use NATs: yes - Use PACOTS: yes - Use low airways: yes - Use high airways: yes

Route

EGTE NOTRO EGJJ

ID Type Via Altitude (ft/m) Position (lat/lon) Dist (leg/tot) Name
O EGTE APT - 0 / 0 50.73430 / -3.41377 - / 0 nm Exeter
NOTRO FIX - 7,100 / 2,164 50.43670 / -3.17250 20 / 20 nm
O EGJJ APT - 0 / 0 49.20800 / -2.19523 82 / 103 nm Jersey

Altitude Profile

Advertisement - Login to hide

EGTE

Details ICAO EGTE (EXT)
Name Exeter
Region United Kingdom
Timezone Europe/London (UTC+0.0)
Stats Elevation 102 ft / 31 m (AMSL)
Location 50.734300° -3.413770°
Runways 1
Magnetic Variation 1.374° W

METAR

EGTE 201450Z 03014KT 9999 SCT027 SCT042 06/01 Q1005

Decode

TAF

Not found

Departure Runways

ID Width Length Bearing (true/mag) Surface Threshold Overrun Markings Lighting
08 148 ft / 45 m 6,839 ft / 2,085 m 76.13° / 77.50° ASPHALT 0 ft / 0 m 0 ft / 0 m UK-PREC-APP EDGE THRESHOLD MALS REIL-OMNI
26 148 ft / 45 m 6,839 ft / 2,085 m 256.15° / 257.52° ASPHALT 0 ft / 0 m 0 ft / 0 m UK-PREC-APP EDGE THRESHOLD CALVERT REIL-OMNI

EGJJ

Details ICAO EGJJ (JER)
Name Jersey
Region United Kingdom
Timezone Europe/Jersey (UTC+0.0)
Stats Elevation 276 ft / 84 m (AMSL)
Location 49.208000° -2.195230°
Runways 1
Magnetic Variation 0.771° W

METAR

EGJJ 201450Z VRB01KT 9999 -SHRA FEW014CB FEW030 BKN047 05/03 Q1002

Decode

TAF

Not found

Destination Runways

ID Width Length Bearing (true/mag) Surface Threshold Overrun Markings Lighting
08 151 ft / 46 m 5,600 ft / 1,707 m 82.74° / 83.51° ASPHALT 190 ft / 58 m 0 ft / 0 m UK-PREC-APP CENTERLINE EDGE THRESHOLD CALVERT TDZ REIL-OMNI
26 151 ft / 46 m 5,600 ft / 1,707 m 262.76° / 263.53° ASPHALT 318 ft / 97 m 0 ft / 0 m UK-PREC-APP CENTERLINE EDGE THRESHOLD CALVERT-ILS TDZ REIL-OMNI

Approach Navaids

Runway Type Ident Frequency Range Bearing (true/mag) Slope Elevation
08 GS IJJ 110.90 MHz 18 nm / 33 km 82.75° / 83.52 ° 3.00° 276 ft / 84 m (AMSL)
08 DME IJJ 110.90 MHz 18 nm / 33 km - - 287 ft / 87 m (AMSL)
08 LOC-ILS IJJ 110.90 MHz 18 nm / 33 km 82.75° / 83.52 ° - 276 ft / 84 m (AMSL)
26 LOC-ILS IDD 110.30 MHz 18 nm / 33 km 262.70° / 263.47 ° - 276 ft / 84 m (AMSL)
26 DME IDD 110.30 MHz 18 nm / 33 km - - 289 ft / 88 m (AMSL)
26 GS IDD 110.30 MHz 18 nm / 33 km 263.75° / 264.52 ° 3.00° 276 ft / 84 m (AMSL)

Popular Alternatives